Year,Month,Day,Hour,Minute,Value (Times are PST for temperature in C)
2022,10,16,08,54,18.10
2022,10,16,08,55,18.10
2022,10,16,08,56,18.10
2022,10,16,08,57,18.10
2022,10,16,08,58,18.10
2022,10,16,08,59,18.20
2022,10,16,09,00,18.20
2022,10,16,09,01,18.20
2022,10,16,09,02,18.20
2022,10,16,09,03,18.30
2022,10,16,09,04,18.30
2022,10,16,09,05,18.40
2022,10,16,09,06,18.50
2022,10,16,09,07,18.50
2022,10,16,09,08,18.60
2022,10,16,09,09,18.60
2022,10,16,09,10,18.70
2022,10,16,09,11,18.70
2022,10,16,09,12,18.80
2022,10,16,09,13,18.80
2022,10,16,09,14,18.80
2022,10,16,09,15,18.90
2022,10,16,09,16,18.90
2022,10,16,09,17,18.90
2022,10,16,09,18,18.90
2022,10,16,09,19,19.00
2022,10,16,09,20,19.00
2022,10,16,09,21,19.10
2022,10,16,09,22,19.10
2022,10,16,09,23,19.20
2022,10,16,09,24,19.20
2022,10,16,09,25,19.30
2022,10,16,09,26,19.30
2022,10,16,09,27,19.30
2022,10,16,09,28,19.40
2022,10,16,09,29,19.40
2022,10,16,09,30,19.50
2022,10,16,09,31,19.50
2022,10,16,09,32,19.60
2022,10,16,09,33,19.60
2022,10,16,09,34,19.70
2022,10,16,09,35,19.80
2022,10,16,09,36,19.80
2022,10,16,09,37,19.80
2022,10,16,09,38,19.90
2022,10,16,09,39,19.90
2022,10,16,09,40,20.00
2022,10,16,09,41,20.00
2022,10,16,09,42,20.10
2022,10,16,09,43,20.10
2022,10,16,09,44,20.20
2022,10,16,09,45,20.20
2022,10,16,09,46,20.30
2022,10,16,09,47,20.30
2022,10,16,09,48,20.40
2022,10,16,09,49,20.40
2022,10,16,09,50,20.50
2022,10,16,09,51,20.50
2022,10,16,09,52,20.60
2022,10,16,09,53,20.60
2022,10,16,09,54,20.70
2022,10,16,09,55,20.70
2022,10,16,09,56,20.80
2022,10,16,09,57,20.80
2022,10,16,09,58,20.80
2022,10,16,09,59,20.90
2022,10,16,10,00,20.90
2022,10,16,10,01,20.90
2022,10,16,10,02,21.00
2022,10,16,10,03,21.10
2022,10,16,10,04,21.10
2022,10,16,10,05,21.10
2022,10,16,10,06,21.20
2022,10,16,10,07,21.20
2022,10,16,10,08,21.30
2022,10,16,10,09,21.30
2022,10,16,10,10,21.40
2022,10,16,10,11,21.40
2022,10,16,10,12,21.50
2022,10,16,10,13,21.50
2022,10,16,10,14,21.60
2022,10,16,10,15,21.70
2022,10,16,10,16,21.70
2022,10,16,10,17,21.80
2022,10,16,10,18,21.80
2022,10,16,10,19,21.90
2022,10,16,10,20,21.90
2022,10,16,10,21,22.00
2022,10,16,10,22,22.00
2022,10,16,10,23,22.10
2022,10,16,10,24,22.10
2022,10,16,10,25,22.20
2022,10,16,10,26,22.30
2022,10,16,10,27,22.30
2022,10,16,10,28,22.40
2022,10,16,10,29,22.50
2022,10,16,10,30,22.60
2022,10,16,10,31,22.70
2022,10,16,10,32,22.70
2022,10,16,10,33,22.70
2022,10,16,10,34,22.70
2022,10,16,10,35,22.80
2022,10,16,10,36,22.80
2022,10,16,10,37,22.80
2022,10,16,10,38,22.90
2022,10,16,10,39,22.90
2022,10,16,10,40,22.90
2022,10,16,10,41,22.90
2022,10,16,10,42,23.00
2022,10,16,10,43,23.00
2022,10,16,10,44,23.10
2022,10,16,10,45,23.10
2022,10,16,10,46,23.10
2022,10,16,10,47,23.10
2022,10,16,10,48,23.10
2022,10,16,10,49,23.10
2022,10,16,10,50,23.10
2022,10,16,10,51,23.10
2022,10,16,10,52,23.10
2022,10,16,10,53,23.10
2022,10,16,10,54,23.10
2022,10,16,10,55,23.20
2022,10,16,10,56,23.20
2022,10,16,10,57,23.20
2022,10,16,10,58,23.20
2022,10,16,10,59,23.20
2022,10,16,11,00,23.20
2022,10,16,11,01,23.20
2022,10,16,11,02,23.20
2022,10,16,11,03,23.20
2022,10,16,11,04,23.20
2022,10,16,11,05,23.20
2022,10,16,11,06,23.20
2022,10,16,11,07,23.20
2022,10,16,11,08,23.20
2022,10,16,11,09,23.20
2022,10,16,11,10,23.20
2022,10,16,11,11,23.30
2022,10,16,11,12,23.30
2022,10,16,11,13,23.30
2022,10,16,11,14,23.30
2022,10,16,11,15,23.40
2022,10,16,11,16,23.40
2022,10,16,11,17,23.50
2022,10,16,11,18,23.50
2022,10,16,11,19,23.50
2022,10,16,11,20,23.60
2022,10,16,11,21,23.60
2022,10,16,11,22,23.60
2022,10,16,11,23,23.60
2022,10,16,11,24,23.60
2022,10,16,11,25,23.60
2022,10,16,11,26,23.70
2022,10,16,11,27,23.70
2022,10,16,11,28,23.80
2022,10,16,11,29,23.80
2022,10,16,11,30,23.90
2022,10,16,11,31,23.90
2022,10,16,11,32,24.00
2022,10,16,11,33,24.00
2022,10,16,11,34,24.10
2022,10,16,11,35,24.10
2022,10,16,11,36,24.10
2022,10,16,11,37,24.20
2022,10,16,11,38,24.30
2022,10,16,11,39,24.30
2022,10,16,11,40,24.30
2022,10,16,11,41,24.40
2022,10,16,11,42,24.40
2022,10,16,11,43,24.40
2022,10,16,11,44,24.40
2022,10,16,11,45,24.40
2022,10,16,11,46,24.50
2022,10,16,11,47,24.50
2022,10,16,11,48,24.60
2022,10,16,11,49,24.60
2022,10,16,11,50,24.60
2022,10,16,11,51,24.60
2022,10,16,11,52,24.60
2022,10,16,11,53,24.60
2022,10,16,11,54,24.60
2022,10,16,11,55,24.60
2022,10,16,11,56,24.70
2022,10,16,11,57,24.80
2022,10,16,11,58,24.80
2022,10,16,11,59,24.90
2022,10,16,12,00,24.90
2022,10,16,12,01,24.90
2022,10,16,12,02,24.90
2022,10,16,12,03,25.00
2022,10,16,12,04,25.10
2022,10,16,12,05,25.10
2022,10,16,12,06,25.20
2022,10,16,12,07,25.30
2022,10,16,12,08,25.30
2022,10,16,12,09,25.40
2022,10,16,12,10,25.40
2022,10,16,12,11,25.50
2022,10,16,12,12,25.60
2022,10,16,12,13,25.60
2022,10,16,12,14,25.70
2022,10,16,12,15,25.70
2022,10,16,12,16,25.70
2022,10,16,12,17,25.70
2022,10,16,12,18,25.70
2022,10,16,12,19,25.80
2022,10,16,12,20,25.80
2022,10,16,12,21,25.90
2022,10,16,12,22,25.90
2022,10,16,12,23,26.00
2022,10,16,12,24,26.00
2022,10,16,12,25,26.10
2022,10,16,12,26,26.10
2022,10,16,12,27,26.10
2022,10,16,12,28,26.10
2022,10,16,12,29,26.10
2022,10,16,12,30,26.10
2022,10,16,12,31,26.10
2022,10,16,12,32,26.20
2022,10,16,12,33,26.20
2022,10,16,12,34,26.20
2022,10,16,12,35,26.10
2022,10,16,12,36,26.10
2022,10,16,12,37,26.10
2022,10,16,12,38,26.10
2022,10,16,12,39,26.10
2022,10,16,12,40,26.10
2022,10,16,12,41,26.20
2022,10,16,12,42,26.20
2022,10,16,12,43,26.20
2022,10,16,12,44,26.20
2022,10,16,12,45,26.20
2022,10,16,12,46,26.20
2022,10,16,12,47,26.10
2022,10,16,12,48,26.10
2022,10,16,12,49,26.00
2022,10,16,12,50,25.90
2022,10,16,12,51,25.80
2022,10,16,12,52,25.70
2022,10,16,12,53,25.60
2022,10,16,12,54,25.60
2022,10,16,12,55,25.50
2022,10,16,12,56,25.50
2022,10,16,12,57,25.40
2022,10,16,12,58,25.40
2022,10,16,12,59,25.40
2022,10,16,13,00,25.50
2022,10,16,13,01,25.50
2022,10,16,13,02,25.50
2022,10,16,13,03,25.50
2022,10,16,13,04,25.40
2022,10,16,13,05,25.40
2022,10,16,13,06,25.40
2022,10,16,13,07,25.50
2022,10,16,13,08,25.50
2022,10,16,13,09,25.50
2022,10,16,13,10,25.50
2022,10,16,13,11,25.60
2022,10,16,13,12,25.60
2022,10,16,13,13,25.70
2022,10,16,13,14,25.80
2022,10,16,13,15,25.80
2022,10,16,13,16,25.90
2022,10,16,13,17,25.90
2022,10,16,13,18,25.90
2022,10,16,13,19,25.90
2022,10,16,13,20,25.90
2022,10,16,13,21,25.90
2022,10,16,13,22,25.90
2022,10,16,13,23,25.90
2022,10,16,13,24,25.80
2022,10,16,13,25,25.70
2022,10,16,13,26,25.70
2022,10,16,13,27,25.70
2022,10,16,13,28,25.70
2022,10,16,13,29,25.70
2022,10,16,13,30,25.70
2022,10,16,13,31,25.80
2022,10,16,13,32,25.80
2022,10,16,13,33,25.80
2022,10,16,13,34,25.90
2022,10,16,13,35,25.90
2022,10,16,13,36,25.90
2022,10,16,13,37,25.90
2022,10,16,13,38,25.90
2022,10,16,13,39,25.90
2022,10,16,13,40,25.90
2022,10,16,13,41,25.90
2022,10,16,13,42,25.90
2022,10,16,13,43,25.90
2022,10,16,13,44,25.80
2022,10,16,13,45,25.90
2022,10,16,13,46,25.90
2022,10,16,13,47,26.00
2022,10,16,13,48,26.10
2022,10,16,13,49,26.10
2022,10,16,13,50,26.20
2022,10,16,13,51,26.20
2022,10,16,13,52,26.20
2022,10,16,13,53,26.20
2022,10,16,13,54,26.20
2022,10,16,13,55,26.20
2022,10,16,13,56,26.20
2022,10,16,13,57,26.20
2022,10,16,13,58,26.20
2022,10,16,13,59,26.20
2022,10,16,14,00,26.20
2022,10,16,14,01,26.30
2022,10,16,14,02,26.30
2022,10,16,14,03,26.30
2022,10,16,14,04,26.20
2022,10,16,14,05,26.20
2022,10,16,14,06,26.20
2022,10,16,14,07,26.30
2022,10,16,14,08,26.30
2022,10,16,14,09,26.30
2022,10,16,14,10,26.30
2022,10,16,14,11,26.30
2022,10,16,14,12,26.40
2022,10,16,14,13,26.40
2022,10,16,14,14,26.40
2022,10,16,14,15,26.50
2022,10,16,14,16,26.50
2022,10,16,14,17,26.60
2022,10,16,14,18,26.60
2022,10,16,14,19,26.60
2022,10,16,14,20,26.70
2022,10,16,14,21,26.70
2022,10,16,14,22,26.70
2022,10,16,14,23,26.80
2022,10,16,14,24,26.80
2022,10,16,14,25,26.80
2022,10,16,14,26,26.80
2022,10,16,14,27,26.80
2022,10,16,14,28,26.80
2022,10,16,14,29,26.80
2022,10,16,14,30,26.80
2022,10,16,14,31,26.80
2022,10,16,14,32,26.80
2022,10,16,14,33,26.80
2022,10,16,14,34,26.80
2022,10,16,14,35,26.80
2022,10,16,14,36,26.80
2022,10,16,14,37,26.80
2022,10,16,14,38,26.80
2022,10,16,14,39,26.80
2022,10,16,14,40,26.80
2022,10,16,14,41,26.90
2022,10,16,14,42,26.90
2022,10,16,14,43,26.90
2022,10,16,14,44,26.80
2022,10,16,14,45,26.80
2022,10,16,14,46,26.80
2022,10,16,14,47,26.70
2022,10,16,14,48,26.60
2022,10,16,14,49,26.30
2022,10,16,14,50,26.10
2022,10,16,14,51,26.00
2022,10,16,14,52,25.80
2022,10,16,14,53,25.70
2022,10,16,14,54,25.60
2022,10,16,14,55,25.50
2022,10,16,14,56,25.40
2022,10,16,14,57,25.30
2022,10,16,14,58,25.30
2022,10,16,14,59,25.30
2022,10,16,15,00,25.30
2022,10,16,15,01,25.30
2022,10,16,15,02,25.30
2022,10,16,15,03,25.40
2022,10,16,15,04,25.40
2022,10,16,15,05,25.50
2022,10,16,15,06,25.40
2022,10,16,15,07,25.40
2022,10,16,15,08,25.20
2022,10,16,15,09,25.10
2022,10,16,15,10,25.00
2022,10,16,15,11,24.90
2022,10,16,15,12,24.80
2022,10,16,15,13,24.80
2022,10,16,15,14,24.70
2022,10,16,15,15,24.70
2022,10,16,15,16,24.70
2022,10,16,15,17,24.70
2022,10,16,15,18,24.80
2022,10,16,15,19,24.80
2022,10,16,15,20,24.80
2022,10,16,15,21,24.80
2022,10,16,15,22,24.90
2022,10,16,15,23,24.90
2022,10,16,15,24,24.90
2022,10,16,15,25,24.90
2022,10,16,15,26,24.80
2022,10,16,15,27,24.70
2022,10,16,15,28,24.50
2022,10,16,15,29,24.40
2022,10,16,15,30,24.20
2022,10,16,15,31,24.10
2022,10,16,15,32,23.90
2022,10,16,15,33,23.80
2022,10,16,15,34,23.60
2022,10,16,15,35,23.50
2022,10,16,15,36,23.40
2022,10,16,15,37,23.40
2022,10,16,15,38,23.40
2022,10,16,15,39,23.40
2022,10,16,15,40,23.40
2022,10,16,15,41,23.40
2022,10,16,15,42,23.40
2022,10,16,15,43,23.40
2022,10,16,15,44,23.40
2022,10,16,15,45,23.40
2022,10,16,15,46,23.40
2022,10,16,15,47,23.40
2022,10,16,15,48,23.30
2022,10,16,15,49,23.30
2022,10,16,15,50,23.30
2022,10,16,15,51,23.20
2022,10,16,15,52,23.20
2022,10,16,15,53,23.10
2022,10,16,15,54,23.00
2022,10,16,15,55,22.90
2022,10,16,15,56,22.90
2022,10,16,15,57,22.80
2022,10,16,15,58,22.80
2022,10,16,15,59,22.70
2022,10,16,16,00,22.70
2022,10,16,16,01,22.60
2022,10,16,16,02,22.60
2022,10,16,16,03,22.60
2022,10,16,16,04,22.60
2022,10,16,16,05,22.60
2022,10,16,16,06,22.50
2022,10,16,16,07,22.40
2022,10,16,16,08,22.40
2022,10,16,16,09,22.30
2022,10,16,16,10,22.20
2022,10,16,16,11,22.10
2022,10,16,16,12,22.00
2022,10,16,16,13,21.90
2022,10,16,16,14,21.90
2022,10,16,16,15,21.90
2022,10,16,16,16,21.90
2022,10,16,16,17,21.90
2022,10,16,16,18,21.90
2022,10,16,16,19,21.90
2022,10,16,16,20,22.00
2022,10,16,16,21,22.00
2022,10,16,16,22,22.00
2022,10,16,16,23,22.00
2022,10,16,16,24,22.00
2022,10,16,16,25,22.10
2022,10,16,16,26,22.10
2022,10,16,16,27,22.10
2022,10,16,16,28,22.10
2022,10,16,16,29,22.10
2022,10,16,16,30,22.20
2022,10,16,16,31,22.20
2022,10,16,16,32,22.20
2022,10,16,16,33,22.20
2022,10,16,16,34,22.20
2022,10,16,16,35,22.10
2022,10,16,16,36,22.10
2022,10,16,16,37,22.10
2022,10,16,16,38,22.10
2022,10,16,16,39,22.00
2022,10,16,16,40,22.00
2022,10,16,16,41,22.00
2022,10,16,16,42,21.90
2022,10,16,16,43,21.90
2022,10,16,16,44,21.90
2022,10,16,16,45,21.90
2022,10,16,16,46,21.90
2022,10,16,16,47,21.80
2022,10,16,16,48,21.80
2022,10,16,16,49,21.80
2022,10,16,16,50,21.80
2022,10,16,16,51,21.80
2022,10,16,16,52,21.80
2022,10,16,16,53,21.80
2022,10,16,16,54,21.80
2022,10,16,16,55,21.80
2022,10,16,16,56,21.80
2022,10,16,16,57,21.80
